Location: Filler
(36.7551°N, 30.4456°E)
Time: 07:33:51
(UTC+00:00)

FENGYUN 3A - Pass Details

Date: 21 September 2024
Orbit: 821 x 835 km, 98.6° (Epoch: 12 October)

Event Time Altitude Azimuth Distance (km) Brightness Sun altitude
Rises 00:17:59 0° 11° (N) 3,363 7.4 -39.5°
Reaches altitude 10° 00:20:21 10° 11° (N) 2,425 6.5 -39.2°
Enters shadow 00:21:39 18° 10° (N) 1,921 5.9 -39.0°
